User: anonymous   Login
Location: Alsip
(41.6689°N, 87.7387°W)
Time: 15:16:17
(UTC+00:00)
Language:

STARLINK-2707 - Orbit

View from above orbital plane
View from above orbital plane
View from above satellite
View from above satellite

Ground track
Ground track

The orbit data is extracted from the following two-line orbital elements,

1 48669C 21044AH  21291.09812958  .00003611  00000-0  24199-3 0  2915
2 48669  53.0493 110.4312 0001645  87.2474 294.0006 15.06388830    13
Epoch (UTC): 18 October 2021 02:21:18
Eccentricity: 0.0001645
inclination: 53.0493°
perigee height: 546 km
apogee height: 548 km
right ascension of ascending node: 110.4312°
argument of perigee: 87.2474°
revolutions per day: 15.06388830
mean anomaly at epoch: 294.0006°
orbit number at epoch: 1

The dashed part of the orbit path shows where the satellite is in the earth's shadow,  

DLR